Orbital Elements at Epoch 2459000.5 (2020-May-31.0) TDB
Reference: JPL 13 (heliocentric ecliptic J2000)
Element | Value | Uncertainty (1-sigma) | Units |
e | .1568764928595104 | 5.1914e-08 | |
a | 2.623237116665317 | 2.3796e-08 | au |
q | 2.211712877863967 | 1.3439e-07 | au |
i | 2.205313645203524 | 6.6368e-06 | deg |
node | 269.642667010433 | 0.00016245 | deg |
peri | 21.02210906485683 | 0.00016463 | deg |
M | 119.7172433182579 | 2.5044e-05 | deg |
tp | 2458484.429591897854 (2018-Dec-31.92959190) | 0.0001063 | TDB |
period | 1551.867899454371 4.25 | 2.1116e-05 5.781e-08 | d yr |
n | .2319785080460613 | 3.1565e-09 | deg/d |
Q | 3.034761355466665 | 2.7529e-08 | au |
|
| | Orbit Determination Parameters
Additional Information
|